カタリナ彗星

C/2015 X2 ( Catalina )

English version
Home page
Updated on June 11, 2016

---------------------------------------------------------------------

・ プロフィール

発見日 2015年12月2日
発見光度 19.5等
発見者 E. J. Christensen, G. J. Leonard (Catalina Sky Survey)

・ 写真集

・ 軌道要素

Epoch 2015 Dec. 4.0 TT = JDT 2457360.5
T 2015 Dec. 20.71713 TT                                 MPCW
q   1.9045688            (2000.0)            P               Q
n   0.01576195     Peri.   42.01805     -0.34093121     -0.09092323
a  15.7541881      Node   101.09455     +0.37939526     -0.92396505
e   0.8791071      Incl.   72.45889     +0.86013089     +0.37151251
P  62.53
From 40 observations 2015 Dec. 2-2016 Feb. 7, mean residual 0".6.

・ 光度変化

        m1 = 15.5 + 5 logΔ + 10.0 log r

---------------------------------------------------------------------

軌道要素はM.P.E.C. 2016-K18に掲載されたものです。
光度グラフはComet for Windowsで作成したものです。

---------------------------------------------------------------------

Copyright(C) Seiichi Yoshida (comet@aerith.net). All rights reserved.